N36BG TJBQ-TNCM

Flight info

Callsign N36BG
Flight time 1h 40m
Altitude 3500
Route 182931N0665039W 182914N0662254W 182746N0660009W 182148N0653712W 181856N0651556W 182319N0645739W 182944N0643156W 183012N0642054W DCT 180031N0631538W
Aircraft BE36/L-BDFGLORY/S

Departure

Time 2026-04-23 17:09
Airport Rafael Hernández International Airport (TJBQ)

Arrival

Time 2026-04-23 18:49
Airport Princess Juliana International Airport (TNCM)
Time Latitude Longitude Altitude Speed Heading
2026-04-23 17:05 18.49643 -67.12916 217 ft 0 kts 212°
2026-04-23 17:05 18.49627 -67.12929 217 ft 8 kts 219°
2026-04-23 17:05 18.49581 -67.13009 219 ft 18 kts 252°
2026-04-23 17:05 18.49533 -67.13162 221 ft 26 kts 252°
2026-04-23 17:06 18.49476 -67.13368 223 ft 32 kts 252°
2026-04-23 17:06 18.49402 -67.13612 226 ft 37 kts 252°
2026-04-23 17:06 18.49321 -67.13876 230 ft 38 kts 252°
2026-04-23 17:06 18.49238 -67.14145 234 ft 40 kts 252°
2026-04-23 17:07 18.49157 -67.14409 238 ft 38 kts 252°
2026-04-23 17:07 18.49094 -67.14560 241 ft 12 kts 191°
2026-04-23 17:07 18.49087 -67.14561 241 ft 0 kts 181°
2026-04-23 17:08 18.49085 -67.14561 241 ft 2 kts 180°
2026-04-23 17:08 18.49041 -67.14554 242 ft 12 kts 157°
2026-04-23 17:08 18.49028 -67.14450 240 ft 20 kts 73°
2026-04-23 17:08 18.49118 -67.14151 235 ft 71 kts 71°
2026-04-23 17:09 18.49307 -67.13546 302 ft 95 kts 72°
2026-04-23 17:09 18.49488 -67.12875 583 ft 98 kts 72°
2026-04-23 17:09 18.49681 -67.12180 936 ft 99 kts 70°
2026-04-23 17:09 18.49907 -67.11485 1292 ft 103 kts 69°
2026-04-23 17:10 18.50146 -67.10776 1704 ft 104 kts 69°
2026-04-23 17:10 18.50378 -67.10071 2307 ft 93 kts 69°
2026-04-23 17:10 18.50598 -67.09455 2822 ft 89 kts 69°
2026-04-23 17:10 18.50603 -67.08809 3147 ft 90 kts 99°
2026-04-23 17:11 18.50517 -67.08143 3475 ft 99 kts 96°
2026-04-23 17:11 18.50379 -67.07284 3493 ft 136 kts 101°
2026-04-23 17:11 18.50189 -67.06257 3492 ft 148 kts 101°
2026-04-23 17:11 18.49969 -67.05175 3488 ft 153 kts 110°
2026-04-23 17:12 18.49444 -67.04183 3488 ft 157 kts 118°
2026-04-23 17:12 18.49118 -67.03090 3483 ft 157 kts 94°
2026-04-23 17:12 18.49121 -67.01940 3483 ft 157 kts 88°
2026-04-23 17:12 18.49137 -67.00797 3490 ft 156 kts 90°
2026-04-23 17:13 18.49128 -66.99640 3490 ft 160 kts 90°
2026-04-23 17:13 18.49128 -66.98443 3484 ft 166 kts 90°
2026-04-23 17:13 18.49131 -66.97229 3483 ft 167 kts 90°
2026-04-23 17:13 18.49144 -66.96002 3475 ft 168 kts 90°
2026-04-23 17:14 18.49144 -66.94790 3468 ft 163 kts 90°
2026-04-23 17:14 18.49146 -66.93604 3466 ft 161 kts 90°
2026-04-23 17:14 18.49151 -66.92439 3468 ft 157 kts 90°
2026-04-23 17:14 18.49157 -66.91297 3468 ft 155 kts 90°
2026-04-23 17:15 18.49165 -66.90167 3466 ft 154 kts 90°
2026-04-23 17:15 18.49172 -66.89042 3464 ft 153 kts 90°
2026-04-23 17:15 18.49178 -66.87926 3463 ft 152 kts 90°
2026-04-23 17:15 18.49183 -66.86810 3461 ft 152 kts 90°
2026-04-23 17:16 18.49189 -66.85694 3458 ft 152 kts 90°
2026-04-23 17:16 18.49193 -66.84597 3459 ft 151 kts 90°
2026-04-23 17:16 18.49193 -66.83493 3460 ft 151 kts 90°
2026-04-23 17:16 18.49180 -66.82388 3458 ft 151 kts 91°
2026-04-23 17:17 18.49167 -66.81285 3457 ft 151 kts 90°
2026-04-23 17:17 18.49163 -66.80163 3469 ft 153 kts 90°
2026-04-23 17:17 18.49142 -66.79036 3464 ft 159 kts 92°
2026-04-23 17:17 18.49125 -66.77874 3462 ft 165 kts 90°
2026-04-23 17:18 18.49115 -66.75512 3447 ft 157 kts 91°
2026-04-23 17:18 18.49103 -66.74371 3452 ft 155 kts 91°
2026-04-23 17:18 18.49091 -66.73247 3451 ft 153 kts 91°
2026-04-23 17:19 18.49080 -66.72129 3448 ft 152 kts 91°
2026-04-23 17:19 18.49069 -66.71017 3451 ft 152 kts 90°
2026-04-23 17:19 18.49058 -66.69905 3448 ft 151 kts 91°
2026-04-23 17:19 18.49047 -66.68798 3448 ft 151 kts 91°
2026-04-23 17:20 18.49037 -66.67693 3451 ft 151 kts 90°
2026-04-23 17:20 18.49015 -66.65479 3447 ft 151 kts 90°
2026-04-23 17:21 18.48993 -66.63243 3464 ft 159 kts 91°
2026-04-23 17:21 18.48982 -66.62047 3466 ft 167 kts 91°
2026-04-23 17:21 18.48954 -66.59558 3449 ft 169 kts 90°
2026-04-23 17:22 18.48942 -66.58349 3449 ft 162 kts 91°
2026-04-23 17:22 18.48918 -66.56026 3451 ft 156 kts 91°
2026-04-23 17:23 18.48894 -66.53728 3444 ft 155 kts 90°
2026-04-23 17:23 18.48882 -66.52598 3448 ft 153 kts 90°
2026-04-23 17:23 18.48857 -66.50364 3448 ft 152 kts 90°
2026-04-23 17:24 18.48845 -66.49275 3449 ft 152 kts 90°
2026-04-23 17:24 18.48834 -66.48205 3449 ft 152 kts 90°
2026-04-23 17:24 18.48811 -66.45981 3450 ft 152 kts 90°
2026-04-23 17:25 18.48786 -66.43757 3450 ft 152 kts 91°
2026-04-23 17:25 18.48773 -66.42644 3455 ft 152 kts 91°
2026-04-23 17:26 18.48749 -66.40355 3466 ft 160 kts 90°
2026-04-23 17:27 18.48547 -66.35574 3460 ft 162 kts 94°
2026-04-23 17:27 18.48475 -66.34388 3453 ft 161 kts 94°
2026-04-23 17:27 18.48405 -66.33222 3456 ft 158 kts 93°
2026-04-23 17:27 18.48334 -66.32073 3454 ft 156 kts 94°
2026-04-23 17:28 18.48262 -66.30943 3453 ft 154 kts 94°
2026-04-23 17:28 18.48191 -66.29826 3454 ft 152 kts 94°
2026-04-23 17:28 18.48120 -66.28718 3455 ft 151 kts 94°
2026-04-23 17:28 18.48050 -66.27616 3454 ft 151 kts 94°
2026-04-23 17:29 18.47981 -66.26516 3459 ft 151 kts 94°
2026-04-23 17:29 18.47909 -66.25413 3458 ft 151 kts 94°
2026-04-23 17:29 18.47766 -66.23203 3456 ft 151 kts 94°
2026-04-23 17:30 18.47719 -66.22457 3458 ft 151 kts 94°
2026-04-23 17:30 18.47554 -66.19895 3458 ft 151 kts 94°
2026-04-23 17:30 18.47483 -66.18797 3459 ft 150 kts 94°
2026-04-23 17:31 18.47411 -66.17690 3463 ft 153 kts 94°
2026-04-23 17:31 18.47339 -66.16577 3460 ft 152 kts 94°
2026-04-23 17:31 18.47269 -66.15469 3460 ft 151 kts 94°
2026-04-23 17:31 18.47197 -66.14365 3459 ft 151 kts 94°
2026-04-23 17:32 18.47124 -66.13263 3465 ft 152 kts 94°
2026-04-23 17:32 18.47053 -66.12154 3470 ft 153 kts 93°
2026-04-23 17:32 18.46983 -66.11021 3460 ft 155 kts 94°
2026-04-23 17:32 18.46906 -66.09896 3463 ft 153 kts 94°
2026-04-23 17:33 18.46833 -66.08779 3461 ft 153 kts 94°
2026-04-23 17:33 18.46762 -66.07666 3461 ft 152 kts 94°
2026-04-23 17:33 18.46689 -66.06555 3461 ft 152 kts 94°
2026-04-23 17:33 18.46617 -66.05449 3458 ft 151 kts 94°
2026-04-23 17:34 18.46546 -66.04351 3462 ft 150 kts 94°
2026-04-23 17:34 18.46474 -66.03253 3460 ft 150 kts 94°
2026-04-23 17:34 18.46332 -66.01065 3459 ft 150 kts 94°
2026-04-23 17:35 18.46222 -65.99974 3461 ft 150 kts 103°
2026-04-23 17:35 18.45645 -65.97829 3466 ft 156 kts 105°
2026-04-23 17:35 18.45357 -65.96728 3473 ft 158 kts 105°
2026-04-23 17:36 18.45073 -65.95585 3471 ft 164 kts 105°
2026-04-23 17:36 18.44765 -65.94409 3473 ft 168 kts 107°
2026-04-23 17:36 18.44444 -65.93211 3459 ft 170 kts 105°
2026-04-23 17:36 18.44139 -65.92037 3456 ft 163 kts 104°
2026-04-23 17:37 18.43854 -65.90903 3456 ft 157 kts 104°
2026-04-23 17:37 18.43572 -65.89808 3456 ft 154 kts 104°
2026-04-23 17:37 18.43010 -65.87638 3472 ft 156 kts 105°
2026-04-23 17:38 18.42713 -65.86507 3475 ft 164 kts 105°
2026-04-23 17:38 18.42410 -65.85340 3468 ft 164 kts 105°
2026-04-23 17:38 18.42112 -65.84187 3474 ft 164 kts 104°
2026-04-23 17:38 18.41809 -65.83024 3455 ft 163 kts 105°
2026-04-23 17:39 18.41516 -65.81894 3471 ft 161 kts 105°
2026-04-23 17:39 18.41221 -65.80754 3457 ft 159 kts 105°
2026-04-23 17:39 18.40931 -65.79633 3471 ft 161 kts 105°
2026-04-23 17:39 18.40634 -65.78497 3456 ft 159 kts 105°
2026-04-23 17:40 18.40343 -65.77385 3453 ft 156 kts 105°
2026-04-23 17:40 18.40056 -65.76282 3455 ft 156 kts 105°
2026-04-23 17:40 18.39772 -65.75196 3454 ft 152 kts 105°
2026-04-23 17:40 18.39494 -65.74127 3457 ft 151 kts 105°
2026-04-23 17:41 18.39219 -65.73067 3456 ft 150 kts 105°
2026-04-23 17:41 18.38671 -65.70963 3461 ft 149 kts 105°
2026-04-23 17:41 18.38397 -65.69911 3460 ft 149 kts 105°
2026-04-23 17:42 18.37848 -65.67808 3462 ft 149 kts 105°
2026-04-23 17:42 18.37575 -65.66761 3462 ft 148 kts 104°
2026-04-23 17:42 18.37301 -65.65711 3464 ft 149 kts 105°
2026-04-23 17:43 18.37026 -65.64656 3471 ft 151 kts 105°
2026-04-23 17:43 18.36745 -65.63582 3468 ft 153 kts 104°
2026-04-23 17:43 18.36461 -65.62478 3473 ft 163 kts 104°
2026-04-23 17:43 18.36220 -65.61313 3462 ft 160 kts 99°
2026-04-23 17:44 18.36063 -65.60167 3459 ft 157 kts 97°
2026-04-23 17:44 18.35924 -65.59042 3462 ft 154 kts 97°
2026-04-23 17:44 18.35641 -65.56832 3459 ft 151 kts 97°
2026-04-23 17:45 18.35495 -65.55743 3459 ft 150 kts 98°
2026-04-23 17:45 18.35204 -65.53576 3459 ft 149 kts 98°
2026-04-23 17:45 18.35058 -65.52493 3463 ft 149 kts 98°
2026-04-23 17:46 18.34768 -65.50333 3463 ft 149 kts 98°
2026-04-23 17:46 18.34623 -65.49253 3463 ft 149 kts 98°
2026-04-23 17:46 18.34479 -65.48185 3463 ft 149 kts 98°
2026-04-23 17:47 18.34333 -65.47104 3462 ft 149 kts 97°
2026-04-23 17:47 18.34188 -65.46029 3466 ft 148 kts 97°
2026-04-23 17:47 18.33899 -65.43880 3463 ft 148 kts 97°
2026-04-23 17:48 18.33755 -65.42809 3464 ft 148 kts 97°
2026-04-23 17:48 18.33611 -65.41739 3461 ft 148 kts 97°
2026-04-23 17:48 18.33512 -65.41012 3458 ft 149 kts 97°
2026-04-23 17:48 18.33366 -65.39932 3464 ft 150 kts 97°
2026-04-23 17:49 18.33220 -65.38845 3460 ft 150 kts 98°
2026-04-23 17:49 18.33073 -65.37757 3463 ft 151 kts 98°
2026-04-23 17:49 18.32925 -65.36667 3462 ft 150 kts 98°
2026-04-23 17:49 18.32780 -65.35595 3460 ft 150 kts 97°
2026-04-23 17:50 18.32634 -65.34508 3463 ft 150 kts 97°
2026-04-23 17:50 18.32342 -65.32355 3464 ft 148 kts 98°
2026-04-23 17:50 18.32188 -65.31233 3448 ft 160 kts 98°
2026-04-23 17:51 18.32034 -65.30083 3464 ft 160 kts 97°
2026-04-23 17:51 18.31882 -65.28914 3460 ft 161 kts 98°
2026-04-23 17:51 18.31587 -65.26565 3463 ft 161 kts 88°
2026-04-23 17:52 18.31825 -65.25395 3474 ft 168 kts 74°
2026-04-23 17:52 18.32410 -65.23077 3453 ft 159 kts 76°
2026-04-23 17:52 18.32667 -65.21962 3455 ft 155 kts 76°
2026-04-23 17:53 18.33182 -65.19790 3456 ft 152 kts 76°
2026-04-23 17:53 18.33440 -65.18717 3455 ft 151 kts 76°
2026-04-23 17:53 18.33698 -65.17650 3455 ft 150 kts 76°
2026-04-23 17:54 18.33954 -65.16585 3452 ft 150 kts 76°
2026-04-23 17:54 18.34207 -65.15522 3458 ft 150 kts 76°
2026-04-23 17:54 18.34715 -65.13408 3456 ft 149 kts 75°
2026-04-23 17:55 18.35220 -65.11298 3456 ft 149 kts 75°
2026-04-23 17:55 18.35474 -65.10241 3458 ft 149 kts 75°
2026-04-23 17:55 18.35729 -65.09182 3459 ft 150 kts 75°
2026-04-23 17:56 18.35984 -65.08117 3457 ft 150 kts 75°
2026-04-23 17:56 18.36492 -65.05990 3461 ft 149 kts 75°
2026-04-23 17:56 18.36746 -65.04932 3458 ft 149 kts 75°
2026-04-23 17:57 18.36999 -65.03875 3462 ft 149 kts 75°
2026-04-23 17:57 18.37252 -65.02818 3456 ft 149 kts 75°
2026-04-23 17:57 18.37759 -65.00696 3443 ft 150 kts 75°
2026-04-23 17:58 18.38014 -64.99634 3442 ft 150 kts 75°
2026-04-23 17:58 18.38267 -64.98571 3441 ft 149 kts 75°
2026-04-23 17:58 18.38520 -64.97511 3437 ft 149 kts 75°
2026-04-23 17:58 18.38774 -64.96450 3440 ft 150 kts 75°
2026-04-23 17:59 18.39031 -64.95387 3445 ft 150 kts 75°
2026-04-23 17:59 18.39298 -64.94325 3441 ft 150 kts 75°
2026-04-23 17:59 18.39569 -64.93260 3442 ft 150 kts 75°
2026-04-23 17:59 18.39837 -64.92197 3445 ft 150 kts 75°
2026-04-23 18:00 18.40102 -64.91138 3436 ft 149 kts 75°
2026-04-23 18:00 18.40365 -64.90085 3442 ft 149 kts 75°
2026-04-23 18:00 18.40628 -64.89031 3445 ft 149 kts 75°
2026-04-23 18:00 18.40892 -64.87978 3441 ft 149 kts 75°
2026-04-23 18:01 18.41156 -64.86921 3441 ft 149 kts 75°
2026-04-23 18:01 18.41422 -64.85863 3443 ft 150 kts 75°
2026-04-23 18:01 18.41687 -64.84804 3441 ft 150 kts 75°
2026-04-23 18:01 18.41953 -64.83739 3446 ft 150 kts 75°
2026-04-23 18:02 18.42218 -64.82678 3443 ft 149 kts 75°
2026-04-23 18:02 18.42482 -64.81622 3443 ft 149 kts 75°
2026-04-23 18:02 18.42746 -64.80566 3442 ft 149 kts 75°
2026-04-23 18:02 18.43004 -64.79529 3442 ft 148 kts 75°
2026-04-23 18:03 18.43268 -64.78477 3441 ft 148 kts 75°
2026-04-23 18:03 18.43532 -64.77423 3440 ft 149 kts 75°
2026-04-23 18:03 18.43798 -64.76353 3446 ft 149 kts 75°
2026-04-23 18:03 18.44058 -64.75313 3441 ft 149 kts 75°
2026-04-23 18:04 18.44324 -64.74247 3445 ft 147 kts 75°
2026-04-23 18:04 18.44578 -64.73228 3448 ft 146 kts 75°
2026-04-23 18:04 18.44836 -64.72190 3450 ft 147 kts 75°
2026-04-23 18:04 18.45098 -64.71141 3460 ft 149 kts 75°
2026-04-23 18:05 18.45363 -64.70085 3457 ft 149 kts 75°
2026-04-23 18:05 18.45631 -64.69010 3458 ft 150 kts 75°
2026-04-23 18:05 18.45890 -64.67967 3458 ft 149 kts 75°
2026-04-23 18:05 18.46151 -64.66916 3458 ft 148 kts 75°
2026-04-23 18:06 18.46416 -64.65852 3461 ft 148 kts 75°
2026-04-23 18:06 18.46673 -64.64818 3459 ft 148 kts 75°
2026-04-23 18:06 18.46938 -64.63755 3460 ft 149 kts 75°
2026-04-23 18:06 18.47201 -64.62699 3457 ft 149 kts 75°
2026-04-23 18:07 18.47464 -64.61642 3463 ft 150 kts 75°
2026-04-23 18:07 18.47726 -64.60594 3462 ft 150 kts 75°
2026-04-23 18:07 18.47989 -64.59533 3460 ft 150 kts 75°
2026-04-23 18:07 18.48252 -64.58474 3462 ft 149 kts 75°
2026-04-23 18:08 18.48429 -64.57759 3465 ft 150 kts 75°
2026-04-23 18:08 18.48778 -64.56353 3462 ft 150 kts 75°
2026-04-23 18:08 18.49041 -64.55295 3463 ft 149 kts 75°
2026-04-23 18:08 18.49304 -64.54236 3463 ft 150 kts 75°
2026-04-23 18:09 18.49556 -64.53174 3461 ft 149 kts 80°
2026-04-23 18:09 18.49594 -64.52083 3462 ft 149 kts 89°
2026-04-23 18:09 18.49621 -64.50986 3463 ft 150 kts 86°
2026-04-23 18:09 18.49680 -64.49893 3461 ft 149 kts 85°
2026-04-23 18:10 18.49738 -64.48804 3463 ft 149 kts 86°
2026-04-23 18:10 18.49789 -64.47715 3465 ft 149 kts 86°
2026-04-23 18:10 18.49837 -64.46624 3465 ft 150 kts 86°
2026-04-23 18:10 18.49884 -64.45525 3461 ft 150 kts 86°
2026-04-23 18:11 18.49930 -64.44425 3461 ft 150 kts 86°
2026-04-23 18:11 18.49977 -64.43325 3461 ft 151 kts 86°
2026-04-23 18:11 18.50023 -64.42223 3459 ft 150 kts 87°
2026-04-23 18:11 18.50070 -64.41127 3465 ft 149 kts 86°
2026-04-23 18:12 18.50111 -64.40038 3463 ft 149 kts 86°
2026-04-23 18:12 18.50161 -64.38943 3454 ft 150 kts 86°
2026-04-23 18:12 18.50208 -64.37847 3452 ft 149 kts 86°
2026-04-23 18:12 18.50254 -64.36755 3453 ft 149 kts 87°
2026-04-23 18:13 18.50295 -64.35663 3455 ft 150 kts 88°
2026-04-23 18:13 18.50067 -64.34600 3451 ft 152 kts 116°
2026-04-23 18:13 18.49420 -64.33700 3471 ft 161 kts 130°
2026-04-23 18:13 18.48658 -64.32810 3439 ft 163 kts 130°
2026-04-23 18:14 18.47912 -64.31930 3441 ft 160 kts 130°
2026-04-23 18:14 18.47184 -64.31055 3438 ft 158 kts 129°
2026-04-23 18:14 18.46470 -64.30189 3447 ft 155 kts 129°
2026-04-23 18:14 18.45765 -64.29337 3440 ft 154 kts 129°
2026-04-23 18:15 18.45062 -64.28492 3447 ft 153 kts 129°
2026-04-23 18:15 18.44360 -64.27648 3441 ft 153 kts 129°
2026-04-23 18:15 18.43658 -64.26803 3446 ft 154 kts 129°
2026-04-23 18:15 18.42954 -64.25958 3440 ft 153 kts 129°
2026-04-23 18:16 18.42252 -64.25113 3443 ft 153 kts 129°
2026-04-23 18:16 18.41550 -64.24269 3439 ft 153 kts 129°
2026-04-23 18:16 18.40845 -64.23425 3439 ft 153 kts 129°
2026-04-23 18:17 18.39448 -64.21743 3442 ft 152 kts 129°
2026-04-23 18:17 18.38749 -64.20905 3439 ft 152 kts 130°
2026-04-23 18:17 18.38056 -64.20073 3437 ft 151 kts 129°
2026-04-23 18:17 18.37367 -64.19244 3440 ft 150 kts 129°
2026-04-23 18:18 18.36681 -64.18419 3434 ft 150 kts 129°
2026-04-23 18:18 18.35994 -64.17595 3432 ft 149 kts 130°
2026-04-23 18:18 18.35309 -64.16773 3430 ft 149 kts 130°
2026-04-23 18:18 18.34623 -64.15950 3435 ft 150 kts 130°
2026-04-23 18:19 18.33946 -64.15137 3432 ft 150 kts 130°
2026-04-23 18:19 18.33259 -64.14314 3433 ft 150 kts 130°
2026-04-23 18:19 18.32573 -64.13490 3431 ft 150 kts 130°
2026-04-23 18:19 18.31887 -64.12668 3432 ft 149 kts 130°
2026-04-23 18:20 18.31193 -64.11836 3438 ft 149 kts 130°
2026-04-23 18:20 18.30509 -64.11014 3430 ft 149 kts 130°
2026-04-23 18:20 18.29822 -64.10188 3433 ft 150 kts 130°
2026-04-23 18:20 18.29129 -64.09360 3431 ft 151 kts 130°
2026-04-23 18:21 18.28444 -64.08539 3432 ft 151 kts 130°
2026-04-23 18:21 18.27750 -64.07706 3435 ft 151 kts 130°
2026-04-23 18:21 18.27057 -64.06875 3431 ft 151 kts 130°
2026-04-23 18:21 18.26363 -64.06045 3431 ft 151 kts 130°
2026-04-23 18:22 18.25669 -64.05213 3432 ft 151 kts 130°
2026-04-23 18:22 18.24976 -64.04382 3432 ft 151 kts 130°
2026-04-23 18:22 18.24282 -64.03552 3435 ft 151 kts 130°
2026-04-23 18:22 18.23590 -64.02721 3436 ft 151 kts 130°
2026-04-23 18:23 18.23120 -64.02158 3431 ft 152 kts 130°
2026-04-23 18:23 18.21499 -64.00220 3433 ft 152 kts 130°
2026-04-23 18:24 18.20111 -63.98557 3430 ft 151 kts 130°
2026-04-23 18:24 18.19419 -63.97728 3435 ft 151 kts 130°
2026-04-23 18:24 18.18734 -63.96908 3494 ft 148 kts 131°
2026-04-23 18:25 18.17363 -63.95269 3491 ft 150 kts 130°
2026-04-23 18:25 18.16671 -63.94441 3493 ft 151 kts 130°
2026-04-23 18:25 18.15978 -63.93612 3492 ft 151 kts 130°
2026-04-23 18:25 18.15283 -63.92781 3492 ft 151 kts 130°
2026-04-23 18:26 18.14588 -63.91950 3490 ft 151 kts 130°
2026-04-23 18:26 18.13892 -63.91118 3493 ft 152 kts 130°
2026-04-23 18:26 18.13196 -63.90287 3492 ft 152 kts 131°
2026-04-23 18:26 18.12500 -63.89455 3492 ft 151 kts 130°
2026-04-23 18:27 18.12032 -63.88894 3495 ft 151 kts 130°
2026-04-23 18:27 18.11114 -63.87796 3493 ft 151 kts 130°
2026-04-23 18:27 18.10419 -63.86968 3493 ft 151 kts 130°
2026-04-23 18:27 18.09725 -63.86138 3494 ft 151 kts 130°
2026-04-23 18:28 18.09029 -63.85307 3498 ft 151 kts 130°
2026-04-23 18:28 18.08334 -63.84477 3492 ft 151 kts 130°
2026-04-23 18:28 18.07641 -63.83648 3491 ft 151 kts 130°
2026-04-23 18:28 18.07180 -63.83098 3497 ft 151 kts 130°
2026-04-23 18:29 18.06484 -63.82268 3498 ft 151 kts 130°
2026-04-23 18:29 18.05554 -63.81158 3496 ft 151 kts 130°
2026-04-23 18:29 18.04859 -63.80328 3496 ft 151 kts 130°
2026-04-23 18:29 18.04163 -63.79497 3496 ft 152 kts 130°
2026-04-23 18:30 18.03466 -63.78664 3496 ft 152 kts 130°
2026-04-23 18:30 18.02766 -63.77830 3500 ft 152 kts 130°
2026-04-23 18:30 18.02302 -63.77277 3498 ft 152 kts 130°
2026-04-23 18:30 18.01601 -63.76442 3493 ft 152 kts 130°
2026-04-23 18:31 18.00903 -63.75608 3494 ft 152 kts 130°
2026-04-23 18:31 18.00205 -63.74776 3493 ft 152 kts 130°
2026-04-23 18:31 17.99509 -63.73947 3493 ft 151 kts 130°
2026-04-23 18:31 17.98813 -63.73116 3493 ft 151 kts 130°
2026-04-23 18:32 17.98181 -63.72361 3483 ft 153 kts 130°
2026-04-23 18:32 17.97486 -63.71522 3491 ft 152 kts 130°
2026-04-23 18:32 17.96786 -63.70688 3493 ft 152 kts 131°
2026-04-23 18:32 17.96064 -63.69837 3337 ft 159 kts 131°
2026-04-23 18:33 17.95339 -63.68977 3129 ft 156 kts 130°
2026-04-23 18:33 17.94628 -63.68132 2923 ft 153 kts 130°
2026-04-23 18:33 17.93947 -63.67285 2722 ft 151 kts 124°
2026-04-23 18:33 17.93612 -63.66271 2608 ft 144 kts 96°
2026-04-23 18:34 17.93682 -63.65271 2607 ft 133 kts 77°
2026-04-23 18:34 17.93911 -63.64330 2604 ft 137 kts 77°
2026-04-23 18:34 17.94133 -63.63334 2605 ft 143 kts 77°
2026-04-23 18:34 17.94352 -63.62302 2605 ft 147 kts 77°
2026-04-23 18:35 17.94578 -63.61248 2609 ft 149 kts 77°
2026-04-23 18:35 17.94807 -63.60182 2614 ft 151 kts 77°
2026-04-23 18:35 17.95041 -63.59099 2610 ft 153 kts 77°
2026-04-23 18:35 17.95278 -63.58009 2606 ft 154 kts 77°
2026-04-23 18:36 17.95516 -63.56910 2609 ft 155 kts 77°
2026-04-23 18:36 17.95753 -63.55809 2608 ft 154 kts 77°
2026-04-23 18:36 17.95995 -63.54712 2608 ft 154 kts 74°
2026-04-23 18:36 17.96376 -63.53670 2607 ft 151 kts 75°
2026-04-23 18:37 17.96601 -63.52598 2569 ft 150 kts 79°
2026-04-23 18:37 17.96799 -63.51530 2540 ft 148 kts 79°
2026-04-23 18:37 17.96990 -63.50470 2507 ft 149 kts 79°
2026-04-23 18:37 17.97181 -63.49388 2370 ft 149 kts 79°
2026-04-23 18:38 17.97365 -63.48341 2280 ft 142 kts 79°
2026-04-23 18:38 17.97537 -63.47338 2204 ft 137 kts 79°
2026-04-23 18:38 17.97697 -63.46376 2130 ft 134 kts 79°
2026-04-23 18:38 17.97852 -63.45420 2056 ft 132 kts 79°
2026-04-23 18:39 17.98003 -63.44472 1984 ft 131 kts 79°
2026-04-23 18:39 17.98154 -63.43523 1912 ft 132 kts 78°
2026-04-23 18:39 17.98350 -63.42583 1834 ft 132 kts 76°
2026-04-23 18:39 17.98562 -63.41648 1764 ft 131 kts 75°
2026-04-23 18:40 17.98752 -63.40709 1686 ft 132 kts 79°
2026-04-23 18:40 17.98881 -63.39756 1613 ft 131 kts 81°
2026-04-23 18:40 17.99001 -63.38820 1616 ft 126 kts 81°
2026-04-23 18:40 17.99139 -63.37934 1614 ft 124 kts 74°
2026-04-23 18:41 17.99358 -63.37068 1607 ft 123 kts 74°
2026-04-23 18:41 17.99581 -63.36183 1614 ft 127 kts 73°
2026-04-23 18:41 17.99815 -63.35278 1617 ft 130 kts 73°
2026-04-23 18:41 18.00053 -63.34342 1618 ft 134 kts 75°
2026-04-23 18:42 18.00243 -63.33371 1615 ft 137 kts 78°
2026-04-23 18:42 18.00416 -63.32383 1617 ft 139 kts 81°
2026-04-23 18:42 18.00537 -63.31372 1615 ft 140 kts 81°
2026-04-23 18:42 18.00676 -63.30366 1612 ft 139 kts 80°
2026-04-23 18:43 18.00832 -63.29391 1608 ft 130 kts 79°
2026-04-23 18:43 18.00983 -63.28481 1611 ft 122 kts 78°
2026-04-23 18:43 18.01127 -63.27628 1610 ft 115 kts 78°
2026-04-23 18:43 18.01265 -63.26818 1604 ft 111 kts 78°
2026-04-23 18:44 18.01399 -63.26026 1604 ft 110 kts 77°
2026-04-23 18:44 18.01582 -63.25252 1603 ft 110 kts 74°
2026-04-23 18:44 18.01774 -63.24488 1601 ft 106 kts 73°
2026-04-23 18:44 18.01961 -63.23754 1601 ft 102 kts 74°
2026-04-23 18:45 18.02148 -63.23051 1595 ft 99 kts 73°
2026-04-23 18:45 18.02327 -63.22360 1606 ft 98 kts 73°
2026-04-23 18:45 18.02445 -63.21647 1606 ft 101 kts 81°
2026-04-23 18:45 18.02535 -63.20911 1605 ft 101 kts 81°
2026-04-23 18:46 18.02623 -63.20170 1607 ft 103 kts 81°
2026-04-23 18:46 18.02712 -63.19419 1609 ft 105 kts 81°
2026-04-23 18:46 18.02790 -63.18712 1568 ft 90 kts 81°
2026-04-23 18:46 18.02859 -63.18057 1464 ft 90 kts 81°
2026-04-23 18:47 18.02930 -63.17406 1350 ft 90 kts 82°
2026-04-23 18:47 18.03005 -63.16740 1194 ft 94 kts 81°
2026-04-23 18:47 18.03114 -63.16065 1025 ft 94 kts 76°
2026-04-23 18:47 18.03259 -63.15391 855 ft 94 kts 76°
2026-04-23 18:48 18.03437 -63.14746 694 ft 90 kts 74°
2026-04-23 18:48 18.03612 -63.14134 549 ft 85 kts 77°
2026-04-23 18:48 18.03739 -63.13528 367 ft 84 kts 82°
2026-04-23 18:48 18.03813 -63.12938 257 ft 80 kts 84°
2026-04-23 18:49 18.03881 -63.12363 136 ft 79 kts 82°
2026-04-23 18:49 18.03961 -63.11787 18 ft 78 kts 82°
2026-04-23 18:49 18.04025 -63.11318 15 ft 50 kts 80°
2026-04-23 18:49 18.04102 -63.11155 16 ft 0 kts 347°
2026-04-23 18:51 18.04104 -63.11155 16 ft 1 kts 351°
2026-04-23 18:51 18.04129 -63.11159 16 ft 4 kts 357°
2026-04-23 18:51 18.04154 -63.11133 16 ft 8 kts 80°
2026-04-23 18:52 18.04166 -63.11106 16 ft 7 kts 29°
2026-04-23 18:52 18.04219 -63.11107 15 ft 8 kts 340°
2026-04-23 18:52 18.04258 -63.11135 15 ft 7 kts 350°
2026-04-23 18:52 18.04260 -63.11135 15 ft 0 kts 350°